Location: Crescent
(42.8242°N, 73.7329°W)
Time: 00:36:44
(UTC+00:00)

Vanguard 2 Rocket - Pass Details

Date: 16 February 2026
Orbit: 553 x 3286 km, 32.9° (Epoch: 9 March)

Event Time Altitude Azimuth Distance (km) Brightness Sun altitude
Rises 19:52:40 0° 256° (WSW) 6,934 12.3 23.5°
Reaches altitude 10° 19:57:54 10° 253° (WSW) 5,624 12.2 22.9°
Maximum altitude 20:12:48 52° 184° (S) 2,323 9.7 20.9°
Drops below altitude 10° 20:21:31 10° 110° (ESE) 3,401 9.6 19.6°
Sets 20:23:54 0° 105° (ESE) 4,092 9.9 19.3°
